Regional Weather Roundup
Issued by NWS Cleveland, OH

Home | Current Version | Previous Version | Text Only | Print | Product List | Glossary Off
Versions: 1 2 3 4 5 6 7 8 9 10 11 12 13 14 15 16 17 18 19 20 21 22 23 24 25 26 27 28 29 30 31 32 33 34 35 36 37 38 39 40 41 42 43 44 45 46 47 48 49 50

000
ASUS41 KCLE 210102
RWRCLE
OHIO REGIONAL WEATHER ROUNDUP
NATIONAL WEATHER SERVICE CLEVELAND, OH
900 PM EDT MON APR 20 2015

NOTE: "FAIR" INDICATES FEW OR NO CLOUDS BELOW 12,000 FEET WITH NO
SIGNIFICANT WEATHER AND/OR OBSTRUCTIONS TO VISIBILITY.

OHZ001>008-015>018-024>027-034-035-043-044-210200-
   NORTHWEST OHIO

CITY           SKY/WX    TMP DP  RH WIND       PRES   REMARKS
DEFIANCE       CLOUDY    49  36  61 SW12      29.60R
FINDLAY        MOCLDY    47  40  76 SW14      29.60R
TOLEDO EXPRESS CLOUDY    48  39  71 W16       29.57R
TOLEDO EXEC    MOCLDY    50  39  66 W14       29.58R
LIMA           PTCLDY    49  37  63 W15       29.63R
$$

OHZ009>014-019>023-028>033-038-089-210200-
   NORTHEAST OHIO

CITY           SKY/WX    TMP DP  RH WIND       PRES   REMARKS
CLE-HOPKINS    MOCLDY    52  40  63 W21G33    29.60R
CLE-LAKEFRONT  CLOUDY    52  42  69 W25G32    29.57R
CUY CO. ARPT   MOCLDY    54  45  71 W17G29    29.57R
LORAIN-ELYRIA  CLOUDY    50  40  68 W22G29    29.59R
ASHTABULA      MOCLDY    53  44  71 W9        29.56R
AKRON-CANTON   CLOUDY    54  39  57 W14       29.58R
WOOSTER        LGT RAIN  51  40  65 W15G25    29.59R
MANSFIELD      MOCLDY    49  38  65 W15G28    29.61R
YOUNGSTOWN     CLOUDY    55  42  61 W20G29    29.56R
$$

OHZ042-051>053-060>062-070>072-077>081-210200-
  SOUTHWEST OHIO

CITY           SKY/WX    TMP DP  RH WIND       PRES   REMARKS
CINC-COVINGTON MOCLDY    52  35  52 W13G21    29.70R
CINC-LUNKEN    PTCLDY    53  34  48 W17G24    29.70R
HAMILTON       PTCLDY    52  37  56 W12G18    29.71R
DAYTON         MOCLDY    51  38  60 W14       29.68R
WRIGHT-PAT AFB PTCLDY    51  36  55 W13       29.67R
DAYTON GENERAL PTCLDY    51  35  54 W15G23    29.68R
WILMINGTON     MOCLDY    50  37  61 W14       29.68R
$$

OHZ036-037-039>041-045>050-054>059-063>069-073>076-082>088-210200-
  CENTRAL AND SOUTHEAST OHIO

CITY           SKY/WX    TMP DP  RH WIND       PRES   REMARKS
COLUMBUS       MOCLDY    52  41  66 W21       29.64R
OSU AIRPORT    MOCLDY    51  38  60 W12       29.65R
BOLTON FIELD   NOT AVBL
RICKENBACK AFB NOT AVBL
NEWARK         CLOUDY    54  40  59 W16G29    29.63R
MARION         PTCLDY    49  39  68 W13       29.64R
LANCASTER      CLOUDY    54  40  59 W14G22    29.65R
ZANESVILLE     CLOUDY    53  42  66 W6        29.62R
NEW PHILLY     MOCLDY    56  41  57 W9G20     29.60R
$$



USA.gov is the U.S. government's official web portal to all federal, state and local government web resources and services.